Stündliche Wetter Otok

Heute, 15 April, Donnerstag

Zeit Temperatur Niederschläge Wind Luftdruck Luftfeuchtigkeit
00:00 0°C° 0 mm 4 m/S 768 mmHg 82%
01:00 0°C° 0 mm 4 m/S 768 mmHg 81%
02:00 0°C° 0 mm 5 m/S 768 mmHg 80%
03:00 +1°C° 0 mm 5 m/S 768 mmHg 80%
04:00 +1°C° 0 mm 6 m/S 768 mmHg 79%
05:00 +1°C° 0 mm 6 m/S 768 mmHg 75%
06:00 +1°C° 0 mm 6 m/S 768 mmHg 71%
07:00 +2°C° 0 mm 7 m/S 768 mmHg 68%
08:00 +2°C° 0 mm 7 m/S 768 mmHg 64%
09:00 +2°C° 0 mm 8 m/S 768 mmHg 61%
10:00 +2°C° 0 mm 8 m/S 768 mmHg 57%
11:00 +2°C° 0 mm 8 m/S 768 mmHg 57%
12:00 +3°C° 0 mm 9 m/S 768 mmHg 56%
13:00 +3°C° 0 mm 9 m/S 768 mmHg 55%
14:00 +3°C° 0 mm 9 m/S 768 mmHg 59%
15:00 +3°C° 0 mm 9 m/S 767 mmHg 62%
16:00 +2°C° 0 mm 8 m/S 767 mmHg 66%
17:00 +2°C° 0 mm 8 m/S 767 mmHg 70%
18:00 +2°C° 0 mm 8 m/S 767 mmHg 74%
19:00 +1°C° 0 mm 8 m/S 767 mmHg 78%
20:00 +1°C° 0 mm 8 m/S 767 mmHg 77%
21:00 +1°C° 0 mm 8 m/S 767 mmHg 76%
22:00 +1°C° 0 mm 8 m/S 767 mmHg 75%
23:00 +1°C° 0 mm 8 m/S 767 mmHg 77%

Morgen, 16 April, Freitag

Zeit Temperatur Niederschläge Wind Luftdruck Luftfeuchtigkeit
00:00 0°C° 0 mm 7 m/S 766 mmHg 79%
01:00 0°C° 0 mm 7 m/S 766 mmHg 81%
02:00 0°C° 0 mm 7 m/S 766 mmHg 83%
03:00 0°C° 0 mm 7 m/S 766 mmHg 85%
04:00 0°C° 0 mm 7 m/S 766 mmHg 87%
05:00 0°C° 0 mm 7 m/S 766 mmHg 84%
06:00 +2°C° 0 mm 7 m/S 766 mmHg 82%
07:00 +2°C° 0 mm 7 m/S 766 mmHg 79%
08:00 +3°C° 0 mm 7 m/S 766 mmHg 76%
09:00 +4°C° 0 mm 7 m/S 766 mmHg 72%
10:00 +4°C° 0 mm 8 m/S 766 mmHg 69%
11:00 +4°C° 0 mm 8 m/S 766 mmHg 67%
12:00 +5°C° 0 mm 8 m/S 766 mmHg 65%
13:00 +5°C° 0 mm 8 m/S 766 mmHg 63%
14:00 +5°C° 0 mm 7 m/S 766 mmHg 68%
15:00 +4°C° 0 mm 7 m/S 766 mmHg 72%
16:00 +3°C° 0 mm 7 m/S 765 mmHg 76%
17:00 +3°C° 0 mm 7 m/S 765 mmHg 79%
18:00 +3°C° 0 mm 6 m/S 765 mmHg 82%
19:00 +2°C° 0 mm 6 m/S 765 mmHg 85%
20:00 +2°C° 0.4 mm 6 m/S 765 mmHg 88%
21:00 +2°C° 0.4 mm 6 m/S 765 mmHg 92%
22:00 +2°C° 0.4 mm 6 m/S 765 mmHg 95%
23:00 +2°C° 0.3 mm 5 m/S 765 mmHg 95%

übermorgen, 17 April, Samstag

Zeit Temperatur Niederschläge Wind Luftdruck Luftfeuchtigkeit
00:00 +2°C° 0.3 mm 5 m/S 765 mmHg 96%
01:00 +3°C° 0.3 mm 4 m/S 764 mmHg 96%
02:00 +3°C° 0 mm 4 m/S 764 mmHg 97%
03:00 +3°C° 0 mm 4 m/S 764 mmHg 97%
04:00 +3°C° 0 mm 3 m/S 765 mmHg 97%
05:00 +4°C° 0 mm 3 m/S 765 mmHg 96%
06:00 +4°C° 0 mm 3 m/S 765 mmHg 95%
07:00 +5°C° 0 mm 3 m/S 765 mmHg 94%
08:00 +5°C° 0 mm 3 m/S 765 mmHg 91%
09:00 +7°C° 0 mm 3 m/S 765 mmHg 89%
10:00 +6°C° 0 mm 4 m/S 765 mmHg 87%
11:00 +6°C° 0.1 mm 4 m/S 765 mmHg 89%
12:00 +6°C° 0.1 mm 4 m/S 765 mmHg 91%
13:00 +6°C° 0.1 mm 5 m/S 765 mmHg 93%
14:00 +6°C° 0.1 mm 5 m/S 765 mmHg 93%
15:00 +6°C° 0.1 mm 5 m/S 764 mmHg 92%
16:00 +6°C° 0.1 mm 5 m/S 764 mmHg 92%
17:00 +5°C° 0 mm 5 m/S 764 mmHg 94%
18:00 +5°C° 0 mm 4 m/S 764 mmHg 95%
19:00 +5°C° 0 mm 4 m/S 764 mmHg 96%
20:00 +5°C° 0 mm 4 m/S 765 mmHg 96%
21:00 +5°C° 0 mm 3 m/S 765 mmHg 96%
22:00 +5°C° 0 mm 3 m/S 765 mmHg 96%
23:00 +5°C° 0 mm 3 m/S 764 mmHg 96%

18 April, Sonntag

Zeit Temperatur Niederschläge Wind Luftdruck Luftfeuchtigkeit
00:00 +5°C° 0 mm 3 m/S 764 mmHg 96%
01:00 +5°C° 0 mm 3 m/S 764 mmHg 96%
02:00 +5°C° 0 mm 3 m/S 764 mmHg 96%
03:00 +5°C° 0 mm 3 m/S 764 mmHg 96%
04:00 +4°C° 0 mm 3 m/S 764 mmHg 97%
05:00 +5°C° 0.4 mm 3 m/S 764 mmHg 96%
06:00 +5°C° 0.4 mm 3 m/S 764 mmHg 96%
07:00 +7°C° 0.4 mm 3 m/S 763 mmHg 96%
08:00 +7°C° 0.9 mm 3 m/S 763 mmHg 96%
09:00 +7°C° 0.9 mm 3 m/S 763 mmHg 95%
10:00 +8°C° 0.9 mm 2 m/S 763 mmHg 95%
11:00 +9°C° 0.2 mm 3 m/S 763 mmHg 88%
12:00 +10°C° 0.2 mm 3 m/S 763 mmHg 82%
13:00 +11°C° 0.2 mm 3 m/S 763 mmHg 76%
14:00 +11°C° 0.3 mm 3 m/S 763 mmHg 77%
15:00 +11°C° 0.3 mm 3 m/S 762 mmHg 77%
16:00 +11°C° 0.3 mm 3 m/S 762 mmHg 78%
17:00 +10°C° 0.2 mm 3 m/S 762 mmHg 83%
18:00 +9°C° 0.2 mm 3 m/S 762 mmHg 88%
19:00 +8°C° 0.2 mm 3 m/S 762 mmHg 93%
20:00 +8°C° 0 mm 2 m/S 762 mmHg 91%
21:00 +8°C° 0 mm 2 m/S 762 mmHg 90%
22:00 +8°C° 0 mm 2 m/S 763 mmHg 89%
23:00 +7°C° 0 mm 2 m/S 763 mmHg 89%

19 April, Montag

Zeit Temperatur Niederschläge Wind Luftdruck Luftfeuchtigkeit
00:00 +7°C° 0 mm 2 m/S 763 mmHg 89%
01:00 +7°C° 0 mm 2 m/S 763 mmHg 89%
02:00 +6°C° 0 mm 2 m/S 763 mmHg 89%
03:00 +6°C° 0 mm 2 m/S 763 mmHg 89%
04:00 +6°C° 0 mm 2 m/S 763 mmHg 89%
05:00 +7°C° 0 mm 2 m/S 763 mmHg 86%
06:00 +7°C° 0 mm 2 m/S 763 mmHg 84%
07:00 +8°C° 0 mm 2 m/S 763 mmHg 81%
08:00 +9°C° 0 mm 2 m/S 762 mmHg 77%
09:00 +12°C° 0 mm 2 m/S 762 mmHg 72%
10:00 +12°C° 0 mm 3 m/S 762 mmHg 68%
11:00 +12°C° 0.2 mm 3 m/S 762 mmHg 66%
12:00 +12°C° 0.2 mm 3 m/S 762 mmHg 64%
13:00 +13°C° 0.2 mm 4 m/S 761 mmHg 62%
14:00 +12°C° 0.1 mm 4 m/S 761 mmHg 64%
15:00 +12°C° 0.1 mm 4 m/S 761 mmHg 67%
16:00 +12°C° 0.1 mm 5 m/S 761 mmHg 69%
17:00 +11°C° 0 mm 4 m/S 760 mmHg 73%
18:00 +10°C° 0 mm 4 m/S 760 mmHg 76%
19:00 +8°C° 0 mm 4 m/S 760 mmHg 80%
20:00 +7°C° 0 mm 4 m/S 760 mmHg 83%
21:00 +6°C° 0 mm 4 m/S 760 mmHg 85%
22:00 +7°C° 0 mm 3 m/S 760 mmHg 88%
23:00 +5°C° 0 mm 3 m/S 759 mmHg 89%

20 April, Dienstag

Zeit Temperatur Niederschläge Wind Luftdruck Luftfeuchtigkeit
00:00 +5°C° 0 mm 3 m/S 759 mmHg 90%
01:00 +5°C° 0 mm 3 m/S 759 mmHg 91%
02:00 +5°C° 0 mm 3 m/S 759 mmHg 91%
03:00 +5°C° 0 mm 3 m/S 759 mmHg 92%
04:00 +5°C° 0 mm 3 m/S 758 mmHg 92%
05:00 +5°C° 0 mm 3 m/S 758 mmHg 91%
06:00 +6°C° 0 mm 4 m/S 758 mmHg 89%
07:00 +7°C° 0 mm 4 m/S 758 mmHg 88%
08:00 +8°C° 0 mm 4 m/S 757 mmHg 84%
09:00 +10°C° 0 mm 4 m/S 757 mmHg 80%
10:00 +10°C° 0 mm 4 m/S 757 mmHg 76%
11:00 +11°C° 0 mm 4 m/S 757 mmHg 76%
12:00 +11°C° 0 mm 4 m/S 756 mmHg 76%
13:00 +10°C° 0 mm 5 m/S 756 mmHg 75%
14:00 +11°C° 0 mm 4 m/S 756 mmHg 76%
15:00 +11°C° 0 mm 4 m/S 756 mmHg 76%
16:00 +11°C° 0 mm 4 m/S 755 mmHg 76%
17:00 +8°C° 0 mm 4 m/S 755 mmHg 82%
18:00 +8°C° 0 mm 3 m/S 755 mmHg 88%
19:00 +7°C° 0 mm 3 m/S 755 mmHg 93%
20:00 +5°C° 0 mm 3 m/S 755 mmHg 94%
21:00 +5°C° 0 mm 3 m/S 755 mmHg 95%
22:00 +5°C° 0 mm 2 m/S 755 mmHg 95%
23:00 +4°C° 0 mm 3 m/S 754 mmHg 95%
Mehr zeigen

Wir brauchen deine Erlaubnis

Meteoprog und unser Service Anbieter werden persönliche Daten aufbewahren, so wie Cookies, Geräte Bezeichnung oder ähnliche Technologien von deinem Gerät und Prozess, so wie Persönliche Daten Inhalte und Werbungen, genauso wie social Media und den Verkehr zu analysieren.

  • Aufbewahrung und/oder Zugang zu deiner Geräte Informationen.

    Cookies, Geräte Bezeichnung oder andere Informationen, können aufbewahrt oder Zugang zu deinem Gerät erhalten, für den Grund, der oben angegeben wird.

  • Personalisierte Werbung und Inhalte, Messungen, Einblick in das Publikum und Produkt Entwicklung.

    Werbungen und Inhalte können personalisiert werden, basierend auf ein Profil. Mehr Daten können besser personalisierte Werbungen und Inhalte hinzufügen. Werbung und Inhalte können gezeigt und gemessen werden. Einblicke über das Publikum, welche die Werbung gesehen haben und den Inhalt, können abgeleitet werden. So wie Daten können genutzt werden, um es zu verbessern oder die Benutzer Erfahrung zu verbessern das System und die Software.

Wenn du “Ich stimme zu” klickst, erlaubst du uns, die Cookies zu benutzen die Geräte Bezeichnung, den Web oder ähnliche Technologien zu benutzen. Deine Settings, können in deinem Gerät bei deinem Browser geändert werden.

Für den bestimmten Zweck, berechtigten Interessen beruhen darauf, mehr als auf den Inhalt. Du kannst mehr darüber in unseren Privaten und Cookie Politik lesen.